Location: Dziadowski
(50.3833°N, 20.0333°E)
Time: 22:12:08
(UTC+00:00)

BREEZE M DEB (TANK) - Pass Details

Date: 18 January 2026
Orbit: 286 x 11206 km, 49.5° (Epoch: 18 February)

Event Time Altitude Azimuth Distance (km) Brightness Sun altitude
Exits shadow 03:32:58 31° 131° (SE) 969 3.9 -27.9°
Drops below altitude 10° 03:36:11 10° 116° (ESE) 2,489 6.4 -27.4°
Sets 03:40:25 0° 113° (ESE) 4,493 8.0 -26.7°
